Find Local Weather

World > North America > United States > New York

Bronx, New York Regional Weather

Lat: 40.85N, Lon: 73.87W
Wx Zone: NYZ073
Feedback
Expires:201807182300;;686260
ASUS41 KALY 182210
RWRALY

NEW YORK STATE HOURLY WEATHER ROUNDUP
NATIONAL WEATHER SERVICE ALBANY NY
600 PM EDT WED JUL 18 2018

NOTE: "FAIR" INDICATES FEW OR NO CLOUDS BELOW 12,000 FEET WITH NO
SIGNIFICANT WEATHER AND/OR NO OBSTRUCTIONS TO VISIBILITY.


NYZ032-033-038>043-046>054-057>066-NYZ062>081-082-084-182300-
EAST

  
CITY           SKY/WX    TMP DP  RH WIND       PRES   REMARKS
ALBANY         FAIR      79  49  34 W14       29.92S                  
GLENS FALLS    FAIR      77  51  40 NE12      29.92S                  
POUGHKEEPSIE   FAIR      81  51  35 N9        29.89S                  
NEWBURGH       MOSUNNY   81  54  39 NW9       29.92S                  
MONTGOMERY     FAIR      80  49  33 NW10      29.91S                  
WHITE PLAINS   FAIR      81  55  40 N13G21    29.90R                  
ISLIP          FAIR      82  51  34 N12       29.88S                  
NEW YORK CITY  FAIR      85  50  29 NW9       29.87S                  
CENTRAL PARK   FAIR      83  52  34 CALM      29.91R                  
$$


SKY/WX - Weather  TMP - Temperature  DP - Dewpoint  RH - Relative Humidity
WIND - Wind Direction/Speed PRES - Barometric Pressure